Regional Weather Roundup
Issued by NWS

Home | Current Version | Previous Version | Graphics & Text | Print | Product List | Glossary On
Versions: 1 2 3 4 5 6 7 8 9 10 11 12 13 14 15 16 17 18 19 20 21 22 23 24 25 26 27 28 29 30 31 32 33 34 35 36 37 38 39 40 41 42 43 44 45 46 47 48 49 50
000
ASUS43 KLOT 281010
RWRIL

ILLINOIS REGIONAL WEATHER ROUNDUP
NATIONAL WEATHER SERVICE CHICAGO/ROMEOVILLE IL
400 AM CST SAT FEB 28 2015

NOTE: "FAIR" INDICATES FEW OR NO CLOUDS BELOW 12,000 FEET WITH NO
SIGNIFICANT WEATHER AND/OR OBSTRUCTIONS TO VISIBILITY.

* THESE STATIONS ARE NOT UNDER NWS QUALITY CONTROL. THEY ALSO MAY NOT
  REPORT WEATHER SUCH AS PRECIPITATION OR FOG.

ILZ001-002-007-009-015-016-024-281100-
NORTHWEST ILLINOIS

CITY           SKY/WX    TMP DP  RH WIND       PRES   REMARKS
MOLINE         MOCLDY   -17 -23  73 CALM      30.66S
STERLING*      PTCLDY   -17 -18  91 CALM      30.65S
SAVANNA*       PTCLDY   -14 -20  75 CALM      30.66S
$$

ILZ003-004-008-010-011-017-018-281100-
NORTH CENTRAL ILLINOIS

CITY           SKY/WX    TMP DP  RH WIND       PRES   REMARKS
ROCKFORD       PTCLDY   -13 -20  71 CALM      30.66S
FREEPORT*      PTCLDY   -17 -22  78 CALM      30.65S
ROCHELLE*      PTCLDY   -15 -19  80 CALM      30.66R
DE KALB*       PTCLDY    -5 -10  81 SW3       30.64S
PERU*          PTCLDY    -5 -10  79 CALM      30.67S
$$

ILZ005-006-012>014-019>023-281100-
NORTHEAST ILLINOIS

CITY           SKY/WX    TMP DP  RH WIND       PRES   REMARKS
CHICAGO-OHARE  PTCLDY    -7 -12  79 SW3       30.65S
CHICAGO-MIDWAY PTCLDY     3  -4  72 S5        30.68R WCI  -6
AURORA         PTCLDY   -15 -19  82 CALM      30.66S
LANSING*       PTCLDY   -10 -15  78 CALM      30.69R
JOLIET*        MOCLDY   -12 -16  79 CALM      30.69R
WAUKEGAN       PTCLDY    -5  -9  83 W3        30.64S
DUPAGE AIRPORT PTCLDY    -9 -16  71 CALM      30.64S
KANKAKEE*      PTCLDY    -3  -7  83 CALM      30.69S
WHEELING       PTCLDY    -8 -14  74 CALM      30.68S
MORRIS*        PTCLDY    -9 -12  86 CALM      30.67S
ROMEOVILLE*    FOG       -7 -11  81 CALM      30.68R VSB 1/2
NORTHERLY ISL    N/A      7  -3  64 CALM        N/A
$$

LMZ740>746-281100-
SOUTHERN LAKE MICHIGAN

STATION/POSITION SKY/WX   TEMP    WIND        PRES    VSBY  WAVE
                          AIR SEA DIR/SP/G                  HT/PER
                          (F)     (DEG/KT/KT) (MB)    (MI)  (FT/S)
WAUKEGAN HARBOR             3     280/  3/  5   N/A
HARRISON CRIB               8     270/  6/  7   N/A
BURNHAM HARBOR              7     250/  2/  5   N/A
CALUMET HARBOR              3     200/  3/ 16 1037.3R
MICHIGAN CITY               2     140/  4/  5   N/A
$$

ILZ025>027-034>036-040-047-049-050-058-095>099-281100-
WEST-CENTRAL ILLINOIS

CITY           SKY/WX    TMP DP  RH WIND       PRES   REMARKS
QUINCY         CLOUDY     6  -3  66 E7        30.61S WCI  -6
GALESBURG*     PTCLDY    -1  -5  85 E3        30.63S
MACOMB*        CLOUDY    -4  -7  84 CALM      30.66S
JACKSONVILLE*  CLOUDY     8   2  74 CALM      30.65R
PITTSFIELD*    CLOUDY    10   3  72 E3        30.63S
$$

ILZ028>032-037-038-041>044-048-051>054-059>061-281100-
CENTRAL ILLINOIS

CITY           SKY/WX    TMP DP  RH WIND       PRES   REMARKS
PONTIAC        MOCLDY    -3  -7  85 CALM      30.68S
BLOOMINGTON    CLEAR      4  -3  72 CALM      30.64F
DECATUR        CLOUDY     8   0  69 E6        30.65S WCI  -2
PEORIA         PTCLDY     3  -2  79 NE3       30.66S
LACON*         PTCLDY    -8 -12  81 CALM      30.67S
LINCOLN*       PTCLDY    10   4  79 CALM      30.69S
SPRINGFIELD    CLOUDY     9  -1  64 E6        30.65S WCI  -1
TAYLORVILLE    CLOUDY     9   1  72 E7        30.65S WCI  -3
$$

ILZ033-039-045-046-055>057-062-063-281100-
EAST-CENTRAL ILLINOIS

CITY           SKY/WX    TMP DP  RH WIND       PRES   REMARKS
CHAMPAIGN      CLOUDY     7  -1  70 E8        30.65S WCI  -6
DANVILLE*      MOCLDY     6  -1  73 E5        30.63S WCI  -3
RANTOUL*       PTCLDY     8   1  76 CALM      30.65S
MATTOON        CLOUDY     8   0  69 NE6       30.63F WCI  -2
PARIS*         MOCLDY     6   1  77 CALM      30.66S
$$

ILZ079-100>102-281100-
SOUTHWEST ILLINOIS

CITY           SKY/WX    TMP DP  RH WIND       PRES   REMARKS
ALTON          CLOUDY    12   0  57 E6        30.65R WCI   3
BELLEVILLE     CLOUDY    15   6  66 E7        30.64S WCI   5
CAHOKIA*       CLOUDY    17   6  62 E6        30.65S WCI   9
SPARTA*        CLOUDY    17   7  67 E6        30.64S WCI   8
$$

ILZ064>066-069>071-074>076-080>082-084>086-088>090-092>094-281100-
SOUTH-CENTRAL ILLINOIS

CITY           SKY/WX    TMP DP  RH WIND       PRES   REMARKS
CARBONDALE     CLOUDY    18   7  62 NE5       30.64R WCI  11
CAIRO*         CLOUDY    22  13  66 NE9       30.62S WCI  12
EFFINGHAM*     MOCLDY    10  -1  60 CALM      30.66S
MARION         CLOUDY    19   9  63 NE6       30.65R WCI  11
MT. VERNON     CLOUDY    16   1  53 NE3       30.65S
CENTRALIA*     CLOUDY    14   2  60 E5        30.64F WCI   6
SALEM*         CLOUDY    15   3  60 E3        30.64F
METROPOLIS*    CLOUDY    20  12  72 N5        30.62R WCI  14
$$

ILZ067-068-072-073-078-083-087-091-281100-
SOUTHEAST ILLINOIS

CITY           SKY/WX    TMP DP  RH WIND       PRES   REMARKS
LAWRENCEVILLE  CLOUDY    13   3  64 NE7       30.66F WCI   3
FLORA*         CLOUDY    11   2  66 NE5       30.66S WCI   3
FAIRFIELD*     CLOUDY    14   5  67 NE6       30.64S WCI   5
HARRISBURG*    CLOUDY    18   9  68 N6        30.66R WCI   9
ROBINSON*      CLOUDY    11   4  72 N3        30.67F
CARMI*         CLOUDY    19  12  74 N5        30.64S WCI  12
$$

ABBREVIATIONS USED IN REMARKS
   TC - TEMPERATURE IN CELSIUS
  WCI - WIND CHILL INDEX
   HX - HEAT INDEX
  VSB - VISIBILITY
$$



USA.gov is the U.S. government's official web portal to all federal, state and local government web resources and services.